weather.gov     
National Weather Service

Terminal Aerodrome Forecast
NWS Homepage
This page is being discontinued on March 12, 2014.
The same data is available at this site. Please update your bookmarks.
Thank you, and we apologize for the inconvenience.
Please send an email to SR-SRH.Webmaster@noaa.gov with any concerns.


Current Version
Previous Version:    01  02  03  04  05  06  07  08  09  10  11  12  13  14  15  16  17  18  19  20  21  22  23  24  25  26  27  28  29  30  
   31  32  33  
[Printable]
820
FTUS43 KMPX 230500
TAFEAU
TAF
KEAU 230534Z 2306/2406 15009KT P6SM VCSH SCT040 BKN080
     FM230800 17008KT 6SM -SHRA BR SCT020 OVC040
      TEMPO 2308/2312 4SM SHRA BR OVC020
     FM231200 18005KT 5SM -RA BR BKN006 OVC012
      TEMPO 2312/2315 2SM BR
     FM231700 22005KT P6SM BKN015 OVC025
     FM232000 24007KT P6SM SCT030
     FM240100 20003KT P6SM SKC=


U.S. Dept. of Commerce
NOAA National Weather Service
1325 East West Highway
Silver Spring, MD 20910
E-mail: w-nws.webmaster@noaa.gov
Page last modified: May 16, 2007
NATIONAL WEATHER SERVICE: for Safety, for Work, for Fun - FOR LIFE